Regional Weather Roundup
Issued by NWS

Home | Current Version | Previous Version | Text Only | Print | Product List | Glossary On
Versions: 1 2 3 4 5 6 7 8 9 10 11 12 13 14 15 16 17 18 19 20 21 22 23 24 25 26 27 28 29 30 31 32 33 34 35 36 37 38 39 40 41 42 43 44 45 46 47 48 49 50
000
ASUS42 KFFC 290610
RWRGA
WEATHER ROUNDUP FOR GEORGIA
NATIONAL WEATHER SERVICE PEACHTREE CITY GA
200 AM EDT SAT APR 29 2017

NOTE: "FAIR" INDICATES FEW OR NO CLOUDS BELOW 12,000 FEET WITH NO
SIGNIFICANT WEATHER AND/OR OBSTRUCTIONS TO VISIBILITY.

* = USE WITH CAUTION. THE STATIONS MARKED WITH AN ASTERISK MAY NOT
REPORT WEATHER SUCH AS PRECIPITATION, FOG, OR THUNDER AND ARE NOT
QUALITY CONTROLLED BY NWS.

THE REMARK "TC" DENOTES TEMPERATURE READING IN DEGREES CELSIUS.

GAZ001>058-290700-
NORTH GEORGIA

CITY           SKY/WX    TMP DP  RH WIND       PRES   REMARKS
ATLANTA        MOCLDY    74  66  76 S8        30.09F
6HR MIN TEMP:  74; 6HR MAX TEMP:  81;

ATHENS         CLOUDY    69  67  93 CALM      30.10S
6HR MIN TEMP:  67; 6HR MAX TEMP:  78;

CHAMBLEE       PTCLDY    70  66  87 CALM      30.10S
6HR MIN TEMP:  70; 6HR MAX TEMP:  80;

PEACHTREE CITY PTCLDY    68  67  96 CALM      30.10S
6HR MIN TEMP:  68; 6HR MAX TEMP:  79;

ROME           PTCLDY    73  65  75 S5        30.05F
6HR MIN TEMP:  72; 6HR MAX TEMP:  81;

WEST ATLANTA   PTCLDY    75  68  78 S5        30.09S
6HR MIN TEMP:  69; 6HR MAX TEMP:  82;

GAINESVILLE    CLOUDY    72  66  81 SE5       30.13F
6HR MIN TEMP:  72; 6HR MAX TEMP:  78;

CARTERSVILLE   PTCLDY    66  65  96 SE5       30.08F
6HR MIN TEMP:  66; 6HR MAX TEMP:  79;



CITY           SKY/WX    TMP DP  RH WIND       PRES   REMARKS
DALTON*        CLEAR     70  68  94 CALM      30.05F
MARIETTA       CLOUDY    73  66  77 S3        30.09S
CANTON*        PTCLDY    70  63  78 CALM      30.12S
$$

GAZ059>098-102>109-290700-
CENTRAL GEORGIA

CITY           SKY/WX    TMP DP  RH WIND       PRES   REMARKS
AUGUSTA-BUSH   PTCLDY    77  71  82 S7        30.10S HAZE
6HR MIN TEMP:  76; 6HR MAX TEMP:  83;

AUGUSTA-DANIEL CLOUDY    76  69  79 SE7       30.12R
6HR MIN TEMP:  76; 6HR MAX TEMP:  87;

COLUMBUS       PTCLDY    76  67  73 CALM      30.07S
6HR MIN TEMP:  76; 6HR MAX TEMP:  85;

MACON          CLEAR     69  67  93 CALM      30.08S
6HR MIN TEMP:  69; 6HR MAX TEMP:  85;

ROBINS AFB     CLEAR     69  68  94 CALM      30.07F


CITY           SKY/WX    TMP DP  RH WIND       PRES   REMARKS
LAGRANGE*      PTCLDY    73  73 100 CALM      30.09S
SYLVANIA*      CLEAR    N/A N/A N/A CALM      30.14S
MILLEDGEVILLE* CLEAR     70  70 100 CALM      30.09S FOG
$$

GAZ099>101-110>166-290700-
SOUTH GEORGIA

CITY           SKY/WX    TMP DP  RH WIND       PRES   REMARKS
SAVANNAH       PTCLDY    76  71  85 S13       30.14R
6HR MIN TEMP:  75; 6HR MAX TEMP:  80;

VALDOSTA       MOCLDY    72  67  84 E3        30.09S
6HR MIN TEMP:  69; 6HR MAX TEMP:  83;

ALMA           CLOUDY    74  69  85 SE7       30.11S
6HR MIN TEMP:  74; 6HR MAX TEMP:  83;

ST SIMONS      MOCLDY    76  73  91 S10       30.14S
6HR MIN TEMP:  76; 6HR MAX TEMP:  78;

FT STEWART     CLEAR     73  70  89 SE3       30.12R
ALBANY         PTCLDY    72  66  81 CALM      30.09F
HUNTER AFB     PTCLDY    77  77 100 S8        30.12S
MOODY AFB      MOCLDY    73  66  78 SE7       30.09S
BRUNSWICK      CLOUDY    77  73  88 SE12      30.14S


CITY           SKY/WX    TMP DP  RH WIND       PRES   REMARKS
BAINBRIDGE*    MOCLDY    72  68  88 CALM      30.07F
MOULTRIE*      PTCLDY    72  66  83 E3        30.10S
VIDALIA*       CLEAR     77  70  78 S3        30.12F
WAYCROSS*      CLOUDY    77  74  90 SE5       30.12S
DOUGLAS*       CLOUDY    75  68  78 CALM      30.12F
$$




USA.gov is the U.S. government's official web portal to all federal, state and local government web resources and services.